#Datum;Uhrzeit;WR;Pac;DaySum;Status;WR;Pac;DaySum;Status;Pdc1;Udc;Temp;WR;Pac;DaySum;Status;Pdc1;Udc;Temp;WR;Pac;DaySum;Status;Pdc1;Udc;Temp;WR;Pac;DaySum;Status;Pdc1;Pdc2;Udc1;Udc2;Temp;WR;Pac;DaySum;Status;Pdc1;Pdc2;Udc1;Udc2;Temp;WR;Pac;DaySum;Status;Pdc1;Udc;Temp;WR;Pac;DaySum;Status;Pdc1;Udc;Temp;WR;Pac;DaySum;Status;Pdc1;Udc;Temp
06.03.21;23:55:00;1;451;17263;0;2;0;29496;0;0;0;0;3;0;18998;0;0;0;0;4;0;28657;0;0;0;0;5;0;0;0;0;0;0;0;0;6;0;51385;0;0;0;0;0;0;7;0;44735;0;0;0;0;8;0;43782;0;0;0;0;9;0;23714;0;0;0;0
06.03.21;23:50:00;1;444;17225;0;2;0;29496;0;0;0;0;3;0;18998;0;0;0;0;4;0;28657;0;0;0;0;5;0;0;0;0;0;0;0;0;6;0;51385;0;0;0;0;0;0;7;0;44735;0;0;0;0;8;0;43782;0;0;0;0;9;0;23714;0;0;0;0
06.03.21;23:45:00;1;471;17188;0;2;0;29496;0;0;0;0;3;0;18998;0;0;0;0;4;0;28657;0;0;0;0;5;0;0;0;0;0;0;0;0;6;0;51385;0;0;0;0;0;0;7;0;44735;0;0;0;0;8;0;43782;0;0;0;0;9;0;23714;0;0;0;0
06.03.21;23:40:00;1;459;17148;0;2;0;29496;0;0;0;0;3;0;18998;0;0;0;0;4;0;28657;0;0;0;0;5;0;0;0;0;0;0;0;0;6;0;51385;0;0;0;0;0;0;7;0;44735;0;0;0;0;8;0;43782;0;0;0;0;9;0;23714;0;0;0;0
06.03.21;23:35:00;1;583;17109;0;2;0;29496;0;0;0;0;3;0;18998;0;0;0;0;4;0;28657;0;0;0;0;5;0;0;0;0;0;0;0;0;6;0;51385;0;0;0;0;0;0;7;0;44735;0;0;0;0;8;0;43782;0;0;0;0;9;0;23714;0;0;0;0
06.03.21;23:30:00;1;461;17066;0;2;0;29496;0;0;0;0;3;0;18998;0;0;0;0;4;0;28657;0;0;0;0;5;0;0;0;0;0;0;0;0;6;0;51385;0;0;0;0;0;0;7;0;44735;0;0;0;0;8;0;43782;0;0;0;0;9;0;23714;0;0;0;0
06.03.21;23:25:00;1;634;17028;0;2;0;29496;0;0;0;0;3;0;18998;0;0;0;0;4;0;28657;0;0;0;0;5;0;0;0;0;0;0;0;0;6;0;51385;0;0;0;0;0;0;7;0;44735;0;0;0;0;8;0;43782;0;0;0;0;9;0;23714;0;0;0;0
06.03.21;23:20:00;1;691;16973;0;2;0;29496;0;0;0;0;3;0;18998;0;0;0;0;4;0;28657;0;0;0;0;5;0;0;0;0;0;0;0;0;6;0;51385;0;0;0;0;0;0;7;0;44735;0;0;0;0;8;0;43782;0;0;0;0;9;0;23714;0;0;0;0
06.03.21;23:15:00;1;427;16916;0;2;0;29496;0;0;0;0;3;0;18998;0;0;0;0;4;0;28657;0;0;0;0;5;0;0;0;0;0;0;0;0;6;0;51385;0;0;0;0;0;0;7;0;44735;0;0;0;0;8;0;43782;0;0;0;0;9;0;23714;0;0;0;0
06.03.21;23:10:00;1;469;16880;0;2;0;29496;0;0;0;0;3;0;18998;0;0;0;0;4;0;28657;0;0;0;0;5;0;0;0;0;0;0;0;0;6;0;51385;0;0;0;0;0;0;7;0;44735;0;0;0;0;8;0;43782;0;0;0;0;9;0;23714;0;0;0;0
06.03.21;23:05:00;1;536;16841;0;2;0;29496;0;0;0;0;3;0;18998;0;0;0;0;4;0;28657;0;0;0;0;5;0;0;0;0;0;0;0;0;6;0;51385;0;0;0;0;0;0;7;0;44735;0;0;0;0;8;0;43782;0;0;0;0;9;0;23714;0;0;0;0
06.03.21;23:00:00;1;533;16797;0;2;0;29496;0;0;0;0;3;0;18998;0;0;0;0;4;0;28657;0;0;0;0;5;0;0;0;0;0;0;0;0;6;0;51385;0;0;0;0;0;0;7;0;44735;0;0;0;0;8;0;43782;0;0;0;0;9;0;23714;0;0;0;0
06.03.21;22:55:00;1;526;16752;0;2;0;29496;0;0;0;0;3;0;18998;0;0;0;0;4;0;28657;0;0;0;0;5;0;0;0;0;0;0;0;0;6;0;51385;2;0;0;0;0;0;7;0;44735;0;0;0;0;8;0;43782;0;0;0;0;9;0;23714;0;0;0;0
06.03.21;22:50:00;1;598;16708;0;2;0;29496;0;0;0;0;3;0;18998;0;0;0;0;4;0;28657;0;0;0;0;5;0;0;0;0;0;0;0;0;6;0;51385;2;0;0;0;0;0;7;0;44735;0;0;0;0;8;0;43782;0;0;0;0;9;0;23714;0;0;0;0
06.03.21;22:45:00;1;635;16658;0;2;0;29496;0;0;0;0;3;0;18998;0;0;0;0;4;0;28657;0;0;0;0;5;0;0;0;0;0;0;0;0;6;0;51385;2;0;0;0;0;0;7;0;44735;0;0;0;0;8;0;43782;0;0;0;0;9;0;23714;0;0;0;0
06.03.21;22:40:00;1;621;16604;0;2;0;29496;0;0;0;0;3;0;18998;0;0;0;0;4;0;28657;0;0;0;0;5;0;0;0;0;0;0;0;0;6;0;51385;2;0;0;0;0;0;7;0;44735;0;0;0;0;8;0;43782;0;0;0;0;9;0;23714;0;0;0;0
06.03.21;22:35:00;1;887;16554;0;2;0;29496;0;0;0;0;3;0;18998;0;0;0;0;4;0;28657;0;0;0;0;5;0;0;0;0;0;0;0;0;6;0;51385;2;0;0;0;0;0;7;0;44735;0;0;0;0;8;0;43782;0;0;0;0;9;0;23714;0;0;0;0
06.03.21;22:30:00;1;567;16478;0;2;0;29496;0;0;0;0;3;0;18998;0;0;0;0;4;0;28657;0;0;0;0;5;0;0;0;0;0;0;0;0;6;0;51385;2;0;0;0;0;0;7;0;44735;0;0;0;0;8;0;43782;0;0;0;0;9;0;23714;0;0;0;0
06.03.21;22:25:00;1;532;16430;0;2;0;29496;0;0;0;0;3;0;18998;0;0;0;0;4;0;28657;0;0;0;0;5;0;0;0;0;0;0;0;0;6;0;51385;2;0;0;0;0;0;7;0;44735;0;0;0;0;8;0;43782;0;0;0;0;9;0;23714;0;0;0;0
06.03.21;22:20:00;1;543;16385;0;2;0;29496;0;0;0;0;3;0;18998;0;0;0;0;4;0;28657;0;0;0;0;5;0;0;0;0;0;0;0;0;6;0;51385;2;0;0;0;0;0;7;0;44735;0;0;0;0;8;0;43782;0;0;0;0;9;0;23714;0;0;0;0
06.03.21;22:15:00;1;546;16340;0;2;0;29496;0;0;0;0;3;0;18998;0;0;0;0;4;0;28657;0;0;0;0;5;0;0;0;0;0;0;0;0;6;0;51385;2;0;0;0;0;0;7;0;44735;0;0;0;0;8;0;43782;0;0;0;0;9;0;23714;0;0;0;0
06.03.21;22:10:00;1;453;16294;0;2;0;29496;0;0;0;0;3;0;18998;0;0;0;0;4;0;28657;0;0;0;0;5;0;0;0;0;0;0;0;0;6;0;51385;2;0;0;0;0;0;7;0;44735;0;0;0;0;8;0;43782;0;0;0;0;9;0;23714;0;0;0;0
06.03.21;22:05:00;1;480;16256;0;2;0;29496;0;0;0;0;3;0;18998;0;0;0;0;4;0;28657;0;0;0;0;5;0;0;0;0;0;0;0;0;6;0;51385;2;0;0;0;0;0;7;0;44735;0;0;0;0;8;0;43782;0;0;0;0;9;0;23714;0;0;0;0
06.03.21;22:00:00;1;442;16207;0;2;0;29496;0;0;0;0;3;0;18998;0;0;0;0;4;0;28657;0;0;0;0;5;0;0;0;0;0;0;0;0;6;0;51385;2;0;0;0;0;0;7;0;44735;0;0;0;0;8;0;43782;0;0;0;0;9;0;23714;0;0;0;0
06.03.21;21:55:00;1;889;16169;0;2;0;29496;0;0;0;0;3;0;18998;0;0;0;0;4;0;28657;0;0;0;0;5;0;0;0;0;0;0;0;0;6;0;51385;2;0;0;0;0;0;7;0;44735;0;0;0;0;8;0;43782;0;0;0;0;9;0;23714;0;0;0;0
06.03.21;21:50:00;1;575;16107;0;2;0;29496;0;0;0;0;3;0;18998;0;0;0;0;4;0;28657;0;0;0;0;5;0;0;0;0;0;0;0;0;6;0;51385;2;0;0;0;0;0;7;0;44735;0;0;0;0;8;0;43782;0;0;0;0;9;0;23714;0;0;0;0
06.03.21;21:45:00;1;420;16073;0;2;0;29496;0;0;0;0;3;0;18998;0;0;0;0;4;0;28657;0;0;0;0;5;0;0;0;0;0;0;0;0;6;0;51385;2;0;0;0;0;0;7;0;44735;0;0;0;0;8;0;43782;0;0;0;0;9;0;23714;0;0;0;0
06.03.21;21:40:00;1;430;16038;0;2;0;29496;0;0;0;0;3;0;18998;0;0;0;0;4;0;28657;0;0;0;0;5;0;0;0;0;0;0;0;0;6;0;51385;2;0;0;0;0;0;7;0;44735;0;0;0;0;8;0;43782;0;0;0;0;9;0;23714;0;0;0;0
06.03.21;21:35:00;1;444;16002;0;2;0;29496;0;0;0;0;3;0;18998;0;0;0;0;4;0;28657;0;0;0;0;5;0;0;0;0;0;0;0;0;6;0;51385;2;0;0;0;0;0;7;0;44735;0;0;0;0;8;0;43782;0;0;0;0;9;0;23714;0;0;0;0
06.03.21;21:30:00;1;519;15965;0;2;0;29496;0;0;0;0;3;0;18998;0;0;0;0;4;0;28657;0;0;0;0;5;0;0;0;0;0;0;0;0;6;0;51385;2;0;0;0;0;0;7;0;44735;0;0;0;0;8;0;43782;0;0;0;0;9;0;23714;0;0;0;0
06.03.21;21:25:00;1;429;15926;0;2;0;29496;0;0;0;0;3;0;18998;0;0;0;0;4;0;28657;0;0;0;0;5;0;0;0;0;0;0;0;0;6;0;51385;2;0;0;0;0;0;7;0;44735;0;0;0;0;8;0;43782;0;0;0;0;9;0;23714;0;0;0;0
06.03.21;21:20:00;1;403;15890;0;2;0;29496;0;0;0;0;3;0;18998;0;0;0;0;4;0;28657;0;0;0;0;5;0;0;0;0;0;0;0;0;6;0;51385;2;0;0;0;0;0;7;0;44735;0;0;0;0;8;0;43782;0;0;0;0;9;0;23714;0;0;0;0
06.03.21;21:15:00;1;434;15857;0;2;0;29496;0;0;0;0;3;0;18998;0;0;0;0;4;0;28657;0;0;0;0;5;0;0;0;0;0;0;0;0;6;0;51385;2;0;0;0;0;0;7;0;44735;0;0;0;0;8;0;43782;0;0;0;0;9;0;23714;0;0;0;0
06.03.21;21:10:00;1;646;15821;0;2;0;29496;0;0;0;0;3;0;18998;0;0;0;0;4;0;28657;0;0;0;0;5;0;0;0;0;0;0;0;0;6;0;51385;2;0;0;0;0;0;7;0;44735;0;0;0;0;8;0;43782;0;0;0;0;9;0;23714;0;0;0;0
06.03.21;21:05:00;1;422;15754;0;2;0;29496;0;0;0;0;3;0;18998;0;0;0;0;4;0;28657;0;0;0;0;5;0;0;0;0;0;0;0;0;6;0;51385;2;0;0;0;0;0;7;0;44735;0;0;0;0;8;0;43782;0;0;0;0;9;0;23714;0;0;0;0
06.03.21;21:00:00;1;431;15719;0;2;0;29496;0;0;0;0;3;0;18998;0;0;0;0;4;0;28657;0;0;0;0;5;0;0;0;0;0;0;0;0;6;0;51385;2;0;0;0;0;0;7;0;44735;0;0;0;0;8;0;43782;0;0;0;0;9;0;23714;0;0;0;0
06.03.21;20:55:00;1;382;15682;0;2;0;29496;0;0;0;0;3;0;18998;0;0;0;0;4;0;28657;0;0;0;0;5;0;0;0;0;0;0;0;0;6;0;51385;2;0;0;0;0;0;7;0;44735;0;0;0;0;8;0;43782;0;0;0;0;9;0;23714;0;0;0;0
06.03.21;20:50:00;1;387;15650;0;2;0;29496;0;0;0;0;3;0;18998;0;0;0;0;4;0;28657;0;0;0;0;5;0;0;0;0;0;0;0;0;6;0;51385;2;0;0;0;0;0;7;0;44735;0;0;0;0;8;0;43782;0;0;0;0;9;0;23714;0;0;0;0
06.03.21;20:45:00;1;381;15618;0;2;0;29496;0;0;0;0;3;0;18998;0;0;0;0;4;0;28657;0;0;0;0;5;0;0;0;0;0;0;0;0;6;0;51385;2;0;0;0;0;0;7;0;44735;0;0;0;0;8;0;43782;0;0;0;0;9;0;23714;0;0;0;0
06.03.21;20:40:00;1;381;15586;0;2;0;29496;0;0;0;0;3;0;18998;0;0;0;0;4;0;28657;0;0;0;0;5;0;0;0;0;0;0;0;0;6;0;51385;2;0;0;0;0;0;7;0;44735;0;0;0;0;8;0;43782;0;0;0;0;9;0;23714;0;0;0;0
06.03.21;20:35:00;1;408;15555;0;2;0;29496;0;0;0;0;3;0;18998;0;0;0;0;4;0;28657;0;0;0;0;5;0;0;0;0;0;0;0;0;6;0;51385;2;0;0;0;0;0;7;0;44735;0;0;0;0;8;0;43782;0;0;0;0;9;0;23714;0;0;0;0
06.03.21;20:30:00;1;465;15521;0;2;0;29496;0;0;0;0;3;0;18998;0;0;0;0;4;0;28657;0;0;0;0;5;0;0;0;0;0;0;0;0;6;0;51385;2;0;0;0;0;0;7;0;44735;0;0;0;0;8;0;43782;0;0;0;0;9;0;23714;0;0;0;0
06.03.21;20:25:00;1;432;15480;0;2;0;29496;0;0;0;0;3;0;18998;0;0;0;0;4;0;28657;0;0;0;0;5;0;0;0;0;0;0;0;0;6;0;51385;2;0;0;0;0;0;7;0;44735;0;0;0;0;8;0;43782;0;0;0;0;9;0;23714;0;0;0;0
06.03.21;20:20:00;1;459;15444;0;2;0;29496;0;0;0;0;3;0;18998;0;0;0;0;4;0;28657;0;0;0;0;5;0;0;0;0;0;0;0;0;6;0;51385;2;0;0;0;0;0;7;0;44735;0;0;0;0;8;0;43782;0;0;0;0;9;0;23714;0;0;0;0
06.03.21;20:15:00;1;1129;15406;0;2;0;29496;0;0;0;0;3;0;18998;0;0;0;0;4;0;28657;0;0;0;0;5;0;0;0;0;0;0;0;0;6;0;51385;2;0;0;0;0;0;7;0;44735;0;0;0;0;8;0;43782;0;0;0;0;9;0;23714;0;0;0;0
06.03.21;20:10:00;1;442;15333;0;2;0;29496;0;0;0;0;3;0;18998;0;0;0;0;4;0;28657;0;0;0;0;5;0;0;0;0;0;0;0;0;6;0;51385;2;0;0;0;0;0;7;0;44735;0;0;0;0;8;0;43782;0;0;0;0;9;0;23714;0;0;0;0
06.03.21;20:05:00;1;387;15296;0;2;0;29496;0;0;0;0;3;0;18998;0;0;0;0;4;0;28657;0;0;0;0;5;0;0;0;0;0;0;0;0;6;0;51385;2;0;0;0;0;0;7;0;44735;0;0;0;0;8;0;43782;0;0;0;0;9;0;23714;0;0;0;0
06.03.21;20:00:00;1;436;15264;0;2;0;29496;0;0;0;0;3;0;18998;0;0;0;0;4;0;28657;0;0;0;0;5;0;0;0;0;0;0;0;0;6;0;51385;2;0;0;0;0;0;7;0;44735;0;0;0;0;8;0;43782;0;0;0;0;9;0;23714;0;0;0;0
06.03.21;19:55:00;1;380;15228;0;2;0;29496;0;0;0;0;3;0;18998;0;0;0;0;4;0;28657;0;0;0;0;5;0;0;0;0;0;0;0;0;6;0;51385;2;0;0;0;0;0;7;0;44735;0;0;0;0;8;0;43782;0;0;0;0;9;0;23714;0;0;0;0
06.03.21;19:50:00;1;379;15196;0;2;0;29496;0;0;0;0;3;0;18998;0;0;0;0;4;0;28657;0;0;0;0;5;0;0;0;0;0;0;0;0;6;0;51385;2;0;0;0;0;0;7;0;44735;0;0;0;0;8;0;43782;0;0;0;0;9;0;23714;0;0;0;0
06.03.21;19:45:00;1;416;15164;0;2;0;29496;0;0;0;0;3;0;18998;0;0;0;0;4;0;28657;0;0;0;0;5;0;0;0;0;0;0;0;0;6;0;51385;2;0;0;0;0;0;7;0;44735;0;0;0;0;8;0;43782;0;0;0;0;9;0;23714;0;0;0;0
06.03.21;19:40:00;1;385;15129;0;2;0;29496;0;0;0;0;3;0;18998;0;0;0;0;4;0;28657;0;0;0;0;5;0;0;0;0;0;0;0;0;6;0;51385;2;0;0;0;0;0;7;0;44735;0;0;0;0;8;0;43782;0;0;0;0;9;0;23714;0;0;0;0
06.03.21;19:35:00;1;419;15097;0;2;0;29496;0;0;0;0;3;0;18998;0;0;0;0;4;0;28657;0;0;0;0;5;0;0;0;0;0;0;0;0;6;0;51385;0;0;0;0;0;0;7;0;44735;0;0;0;0;8;0;43782;0;0;0;0;9;0;23714;0;0;0;0
06.03.21;19:30:00;1;1317;15063;0;2;0;29496;0;0;0;0;3;0;18998;0;0;0;0;4;0;28657;0;0;0;0;5;0;0;0;0;0;0;0;0;6;0;51385;2;0;0;0;0;0;7;0;44735;0;0;0;0;8;0;43782;0;0;0;0;9;0;23714;0;0;0;0
06.03.21;19:25:00;1;423;14988;0;2;0;29496;0;0;0;0;3;0;18998;0;0;0;0;4;0;28657;0;0;0;0;5;0;0;0;0;0;0;0;0;6;0;51385;2;0;0;0;0;0;7;0;44735;0;0;0;0;8;0;43782;0;0;0;0;9;0;23714;0;0;0;0
06.03.21;19:20:00;1;402;14953;0;2;0;29496;0;0;0;0;3;0;18998;0;0;0;0;4;0;28657;0;0;0;0;5;0;0;0;0;0;0;0;0;6;0;51385;2;0;0;0;0;0;7;0;44735;0;0;0;0;8;0;43782;0;0;0;0;9;0;23714;0;0;0;0
06.03.21;19:15:00;1;485;14919;0;2;0;29496;0;0;0;0;3;0;18998;0;0;0;0;4;0;28657;0;0;0;0;5;0;0;0;0;0;0;0;0;6;0;51385;2;0;0;0;0;0;7;0;44735;0;0;0;0;8;0;43782;0;0;0;0;9;0;23714;0;0;0;0
06.03.21;19:10:00;1;514;14880;0;2;0;29496;0;0;0;0;3;0;18998;0;0;0;0;4;0;28657;0;0;0;0;5;0;0;0;0;0;0;0;0;6;0;51385;2;0;0;0;0;0;7;0;44735;0;0;0;0;8;0;43782;0;0;0;0;9;0;23714;0;0;0;0
06.03.21;19:05:00;1;578;14836;0;2;0;29496;0;0;0;0;3;0;18998;0;0;0;0;4;0;28657;0;0;0;0;5;0;0;0;0;0;0;0;0;6;0;51385;2;0;0;0;0;0;7;0;44735;0;0;0;0;8;0;43782;0;0;0;0;9;0;23714;0;0;0;0
06.03.21;19:00:00;1;680;14791;0;2;0;29496;0;0;0;0;3;0;18998;0;0;0;0;4;0;28657;0;0;0;0;5;0;0;0;0;0;0;0;0;6;0;51385;2;0;0;0;0;0;7;0;44735;0;0;0;0;8;0;43782;0;0;0;0;9;0;23714;0;0;0;0
06.03.21;18:55:00;1;665;14734;0;2;0;29496;0;0;0;0;3;0;18998;0;0;0;0;4;0;28657;0;0;0;0;5;0;0;0;0;0;0;0;0;6;0;51385;2;0;0;0;0;0;7;0;44735;0;0;0;0;8;0;43782;0;0;0;0;9;0;23714;0;0;0;0
06.03.21;18:50:00;1;653;14678;0;2;0;29496;0;0;0;0;3;0;18998;0;0;0;0;4;0;28657;0;0;0;0;5;0;0;0;0;0;0;0;0;6;0;51385;2;0;0;0;0;0;7;0;44735;0;0;0;0;8;0;43782;0;0;0;0;9;0;23714;0;0;0;0
06.03.21;18:45:00;1;604;14624;0;2;0;29496;0;0;0;0;3;0;18998;0;0;0;0;4;0;28657;0;0;0;0;5;0;0;0;0;0;0;0;0;6;0;51385;2;0;0;0;0;0;7;0;44735;0;0;0;0;8;0;43782;0;0;0;0;9;0;23714;0;0;0;0
06.03.21;18:40:00;1;633;14573;0;2;0;29496;0;0;0;0;3;0;18998;0;0;0;0;4;0;28657;0;0;0;0;5;0;0;0;0;0;0;0;0;6;0;51385;2;0;0;0;0;0;7;0;44735;0;0;0;0;8;0;43782;0;0;0;0;9;0;23714;0;0;0;0
06.03.21;18:35:00;1;636;14521;0;2;0;29496;0;0;0;0;3;0;18998;0;0;0;0;4;0;28657;0;0;0;0;5;0;0;0;0;0;0;0;0;6;0;51385;2;0;0;0;0;0;7;0;44735;0;0;0;0;8;0;43782;0;0;0;0;9;0;23714;0;0;0;0
06.03.21;18:30:00;1;694;14467;0;2;0;29496;0;0;0;0;3;0;18998;0;0;0;0;4;0;28657;0;0;0;0;5;0;0;0;0;0;0;0;0;6;0;51385;2;0;0;0;0;0;7;0;44735;0;0;0;0;8;0;43782;0;0;0;0;9;0;23714;0;0;0;0
06.03.21;18:25:00;1;744;14410;0;2;0;29496;0;0;232;13;3;0;18998;6;0;291;17;4;0;28657;0;0;0;0;5;0;0;0;0;0;0;0;0;6;0;51385;2;0;0;0;0;0;7;0;44735;0;0;0;0;8;0;43782;0;0;0;0;9;0;23714;0;0;0;0
06.03.21;18:20:00;1;590;14328;0;2;0;29496;6;0;323;16;3;0;18998;6;0;384;18;4;0;28657;0;0;53;14;5;0;0;0;0;0;0;0;0;6;0;51385;2;0;0;0;0;0;7;0;44735;0;0;0;0;8;0;43782;0;0;0;0;9;0;23714;0;0;0;0
06.03.21;18:15:00;1;553;14279;0;2;0;29496;6;0;378;16;3;0;18998;6;0;474;18;4;0;28657;1;0;132;17;5;0;0;0;0;0;0;0;0;6;0;51385;23;7;2;180;450;26;7;0;44735;0;0;241;19;8;0;43782;0;0;236;18;9;0;23714;0;0;244;14
06.03.21;18:10:00;1;548;14232;0;2;0;29496;6;0;398;17;3;0;18998;4;2;482;18;4;0;28657;1;0;181;18;5;0;0;0;0;0;0;0;0;6;0;51385;23;8;2;181;550;26;7;0;44735;6;0;366;23;8;0;43782;6;0;363;22;9;0;23714;6;0;370;17
06.03.21;18:05:00;1;546;14186;0;2;0;29496;6;0;413;18;3;6;18998;3;13;456;19;4;0;28657;1;0;219;19;5;0;0;0;0;0;0;0;0;6;0;51385;23;7;1;182;580;27;7;0;44735;6;3;406;24;8;0;43782;6;0;435;23;9;1;23714;3;1;417;17
06.03.21;18:00:00;1;621;14140;0;2;3;29496;6;10;408;19;3;1;18997;6;6;508;19;4;0;28657;3;0;206;20;5;0;0;0;0;0;0;0;0;6;9;51385;23;5;14;495;570;28;7;0;44735;6;3;447;25;8;0;43782;4;2;450;23;9;1;23714;6;5;449;18
06.03.21;17:55:00;1;612;14090;0;2;109;29496;6;153;363;20;3;52;18997;6;72;472;20;4;59;28657;3;62;208;21;5;0;0;0;0;0;0;0;0;6;61;51384;4;22;37;461;475;29;7;66;44735;6;91;425;25;8;3;43782;6;6;482;24;9;1;23714;6;3;520;18
06.03.21;17:50:00;1;632;14039;0;2;324;29487;4;367;357;21;3;188;18993;4;227;423;21;4;236;28652;5;246;231;21;5;0;0;0;0;0;0;0;0;6;80;51378;4;28;40;462;475;29;7;204;44729;4;234;376;26;8;12;43782;6;21;464;25;9;2;23714;6;10;516;19
06.03.21;17:45:00;1;649;13986;0;2;457;29460;4;502;357;22;3;265;18977;4;307;431;21;4;375;28632;5;391;239;22;5;0;0;0;0;0;0;0;0;6;108;51371;4;50;73;462;475;29;7;299;44712;4;335;409;26;8;53;43781;4;90;417;25;9;3;23714;6;7;558;19
06.03.21;17:40:00;1;693;13932;0;2;600;29422;4;648;353;23;3;341;18955;4;386;434;22;4;479;28602;5;498;241;23;5;0;0;0;0;0;0;0;0;6;138;51362;4;56;75;461;475;29;7;445;44687;4;483;428;27;8;77;43776;4;114;420;26;9;3;23714;6;8;566;20
06.03.21;17:35:00;1;648;13874;0;2;755;29372;4;811;352;23;3;446;18926;4;493;435;22;4;634;28562;5;661;245;23;5;0;0;0;0;0;0;0;0;6;186;51350;4;85;100;461;475;29;7;699;44650;4;747;433;27;8;140;43770;4;175;377;26;9;14;23713;3;23;547;20
06.03.21;17:30:00;1;640;13820;0;2;888;29310;4;948;355;24;3;537;18889;4;589;440;23;4;747;28509;5;778;242;24;5;0;0;0;0;0;0;0;0;6;238;51334;4;104;121;462;475;29;7;923;44593;4;983;463;28;8;307;43759;4;339;363;27;9;10;23712;6;15;578;21
06.03.21;17:25:00;1;595;13766;0;2;1070;29235;4;1135;365;25;3;626;18844;4;681;440;23;4;889;28447;5;926;250;24;5;0;0;0;0;0;0;0;0;6;323;51314;4;152;188;501;547;29;7;1133;44515;4;1200;461;29;8;553;43732;4;602;447;27;9;68;23710;4;98;463;22
06.03.21;17:20:00;1;589;13716;0;2;1225;29146;4;1302;372;26;3;709;18792;4;766;435;23;4;1017;28373;5;1059;245;25;5;0;0;0;0;0;0;0;0;6;447;51286;4;221;252;604;580;30;7;1320;44421;4;1395;475;29;8;777;43686;4;834;489;28;9;75;23705;4;110;504;22
06.03.21;17:15:00;1;593;13667;0;2;1329;29045;4;1409;360;27;3;814;18733;4;876;436;24;4;1138;28288;5;1185;244;26;5;0;0;0;0;0;0;0;0;6;565;51247;4;264;291;611;588;30;7;1587;44310;4;1673;488;30;8;891;43622;4;949;493;29;9;86;23699;4;120;479;23
06.03.21;17:10:00;1;589;13617;0;2;1412;28934;4;1494;364;28;3;858;18666;4;940;429;24;4;1173;28194;5;1222;235;26;5;0;0;0;0;0;0;0;0;6;662;51200;4;348;379;615;584;30;7;1735;44180;4;1833;494;30;8;863;43548;4;914;391;29;9;96;23691;4;130;504;24
06.03.21;17:05:00;1;801;13568;0;2;1632;28817;4;1727;375;29;3;973;18595;4;1039;435;25;4;1297;28096;5;1351;223;27;5;0;0;0;0;0;0;0;0;6;820;51144;4;390;408;614;592;30;7;1962;44035;4;2065;494;31;8;1285;43475;4;1350;360;30;9;96;23683;4;131;482;24
06.03.21;17:00:00;1;659;13486;0;2;1801;28681;4;1901;372;30;3;1046;18513;4;1115;428;25;4;1447;27988;5;1508;235;27;5;0;0;0;0;0;0;0;0;6;964;51075;4;465;488;617;593;30;7;2139;43871;4;2253;491;31;8;1654;43368;4;1739;391;31;9;95;23675;4;124;371;25
06.03.21;16:55:00;1;638;13431;0;2;1942;28530;4;2048;377;31;3;1147;18426;4;1220;444;25;4;1685;27867;5;1755;244;28;5;0;0;0;0;0;0;0;0;6;1149;50992;4;575;589;616;589;30;7;2344;43693;4;2471;492;32;8;2048;43229;4;2150;435;31;9;197;23667;4;227;360;26
06.03.21;16:50:00;1;717;13377;0;2;2017;28370;4;2128;380;32;3;1200;18331;4;1274;446;26;4;1822;27728;5;1898;243;28;5;0;0;0;0;0;0;0;0;6;1296;50896;4;660;671;611;590;31;7;2491;43499;4;2611;487;32;8;2275;43060;4;2387;456;32;9;510;23652;4;554;361;28
06.03.21;16:45:00;1;614;13324;0;2;2258;28201;4;2381;387;33;3;1283;18230;4;1359;440;26;4;1920;27576;5;2000;244;29;5;0;0;0;0;0;0;0;0;6;1480;50786;4;755;758;615;592;31;7;2705;43291;4;2841;492;33;8;2588;42869;4;2712;467;33;9;897;23608;4;952;358;29
06.03.21;16:40:00;1;636;13273;0;2;2392;28013;4;2520;384;34;3;1332;18123;4;1405;435;26;4;1897;27416;5;1976;231;29;5;0;0;0;0;0;0;0;0;6;1613;50661;4;820;818;612;588;31;7;2829;43065;4;2970;487;33;8;2780;42656;4;2921;480;33;9;1053;23534;4;1114;378;30
06.03.21;16:35:00;1;601;13220;0;2;2532;27814;4;2666;384;35;3;1390;18013;4;1471;445;27;4;1935;27259;5;2016;245;29;5;0;0;0;0;0;0;0;0;6;1826;50526;4;907;909;613;589;31;7;3010;42831;4;3155;483;34;8;2960;42422;4;3112;476;33;9;1208;23446;4;1281;406;31
06.03.21;16:30:00;1;650;13171;0;2;2665;27603;4;2807;392;36;3;1441;17897;4;1524;446;27;4;2015;27097;5;2099;244;30;5;0;0;0;0;0;0;0;0;6;1986;50373;4;996;997;613;589;31;7;3161;42581;4;3300;476;34;8;3128;42178;4;3276;475;34;9;1388;23347;4;1469;434;32
06.03.21;16:25:00;1;663;13117;0;2;2808;27382;4;2960;392;36;3;1499;17777;4;1583;435;27;4;2109;26929;5;2197;245;30;5;0;0;0;0;0;0;0;0;6;2193;50206;4;1102;1095;611;586;32;7;3338;42317;4;3511;480;35;8;3315;41918;4;3480;476;34;9;1581;23231;4;1677;464;33
06.03.21;16:20:00;1;652;13060;0;2;2865;27147;4;3017;387;37;3;1521;17652;4;1605;432;27;4;2096;26753;5;2184;231;31;5;0;0;0;0;0;0;0;0;6;2320;50023;4;1208;1175;608;586;32;7;3426;42040;4;3594;476;35;8;3386;41641;4;3549;471;35;9;1694;23101;4;1798;487;34
06.03.21;16:15:00;1;666;13006;0;2;2982;26909;4;3141;390;38;3;1556;17526;4;1638;431;28;4;2123;26579;5;2211;212;31;5;0;0;0;0;0;0;0;0;6;2490;49828;4;1264;1258;609;583;32;7;3522;41755;4;3697;473;35;8;3496;41359;4;3673;473;35;9;1834;22960;4;1945;506;35
06.03.21;16:10:00;1;693;12950;0;2;3092;26660;4;3256;387;39;3;1618;17396;4;1704;430;28;4;2163;26402;5;2253;201;32;5;0;0;0;0;0;0;0;0;6;2661;49621;4;1381;1345;604;584;32;7;3697;41461;4;3884;475;36;8;3669;41068;4;3847;471;36;9;1966;22806;4;2088;515;36
06.03.21;16:05:00;1;646;12893;0;2;3247;26402;4;3422;395;39;3;1670;17261;4;1759;427;29;4;2158;26222;5;2247;202;32;5;0;0;0;0;0;0;0;0;6;2885;49397;4;1483;1459;604;582;32;7;3891;41155;4;4099;478;36;8;3849;40764;4;4044;471;36;9;2117;22643;4;2246;524;36
06.03.21;16:00:00;1;692;12839;0;2;3376;26132;4;3556;391;40;3;1708;17122;4;1796;411;29;4;2150;26042;5;2240;201;33;5;0;0;0;0;0;0;0;0;6;3066;49156;4;1587;1568;602;580;32;7;4034;40828;4;4236;482;37;8;4002;40441;4;4205;468;37;9;2201;22465;4;2333;520;37
06.03.21;15:55:00;1;658;12781;0;2;3450;25850;4;3646;405;41;3;1800;16979;4;1894;412;29;4;2292;25862;5;2387;224;33;5;0;0;0;0;0;0;0;0;6;3232;48899;4;1658;1622;605;581;33;7;4155;40492;4;4369;478;37;8;4116;40107;4;4326;472;37;9;2256;22282;4;2395;522;37
06.03.21;15:50:00;1;606;12725;0;2;3483;25564;4;3677;404;41;3;1891;16830;4;1989;414;30;4;2379;25673;5;2478;229;34;5;0;0;0;0;0;0;0;0;6;3365;48629;4;1737;1707;603;585;33;7;4237;40146;4;4455;476;38;8;4214;39765;4;4422;471;37;9;2314;22094;4;2457;524;38
06.03.21;15:45:00;1;615;12674;0;2;3622;25273;4;3816;393;41;3;1993;16672;4;2095;427;30;4;2457;25475;5;2559;234;35;5;0;0;0;0;0;0;0;0;6;3579;48347;4;1838;1785;602;582;33;7;4411;39793;4;4635;471;38;8;4368;39415;4;4592;471;38;9;2406;21901;4;2548;515;38
06.03.21;15:40:00;1;607;12622;0;2;3663;24971;4;3864;392;42;3;2023;16506;4;2129;427;30;4;2510;25269;5;2615;233;35;5;0;0;0;0;0;0;0;0;6;3731;48046;4;1910;1866;600;582;33;7;4474;39424;4;4701;466;38;8;4440;39048;4;4665;464;38;9;2442;21701;4;2589;516;39
06.03.21;15:35:00;1;606;12572;0;2;3746;24665;4;3954;392;42;3;2075;16337;4;2179;426;31;4;2659;25060;5;2770;232;36;5;0;0;0;0;0;0;0;0;6;3901;47735;4;2027;1980;599;581;33;7;4576;39052;4;4808;464;39;8;4520;38678;4;4753;462;39;9;2499;21496;4;2642;516;39
06.03.21;15:30:00;1;617;12521;0;2;3822;24353;4;4037;396;43;3;2124;16164;4;2232;432;31;4;2795;24838;5;2911;240;37;5;0;0;0;0;0;0;0;0;6;4048;47408;4;2084;2041;601;581;33;7;4690;38670;4;4932;470;39;8;4636;38302;4;4877;464;39;9;2556;21288;4;2708;515;40
06.03.21;15:25:00;1;670;12470;0;2;3888;24034;4;4108;397;43;3;2199;15987;4;2310;434;31;4;2969;24605;5;3093;238;38;5;0;0;0;0;0;0;0;0;6;4206;47070;4;2159;2114;594;578;34;7;4844;38279;4;5095;470;40;8;4798;37915;4;5041;464;39;9;2642;21075;4;2800;515;40
06.03.21;15:20:00;1;668;12413;0;2;3951;23711;4;4173;393;43;3;2234;15804;4;2346;435;32;4;3144;24359;5;3275;236;38;5;0;0;0;0;0;0;0;0;6;4358;46719;4;2244;2178;594;575;34;7;4962;37876;4;5214;467;40;8;4901;37516;4;5154;465;40;9;2698;20855;4;2858;517;40
06.03.21;15:15:00;1;664;12357;0;2;3997;23381;4;4216;389;43;3;2261;15617;4;2373;434;32;4;3254;24096;5;3389;235;39;5;0;0;0;0;0;0;0;0;6;4494;46354;4;2324;2249;591;571;34;7;5055;37462;4;5314;466;40;8;5005;37107;4;5256;459;40;9;2765;20630;4;2925;515;41
06.03.21;15:10:00;1;2037;12301;0;2;4003;23048;4;4228;385;44;3;2294;15429;4;2410;438;32;4;3340;23825;5;3479;233;39;5;0;0;0;0;0;0;0;0;6;4589;45979;4;2369;2312;585;568;34;7;5074;37040;4;5335;458;40;8;5036;36691;4;5296;451;40;9;2788;20399;4;2956;514;41
06.03.21;15:05:00;1;645;12158;0;2;4074;22714;4;4295;385;44;3;2375;15237;4;2493;436;33;4;3464;23546;5;3608;231;40;5;0;0;0;0;0;0;0;0;6;4760;45596;4;2450;2391;585;563;34;7;5127;36619;4;5396;455;41;8;5102;36272;4;5362;453;41;9;2830;20167;4;2994;507;42
06.03.21;15:00:00;1;627;12105;0;2;4113;22375;4;4348;396;44;3;2403;15040;4;2521;440;33;4;3555;23259;5;3703;232;40;5;0;0;0;0;0;0;0;0;6;4887;45199;4;2536;2447;587;566;34;7;5217;36192;4;5476;457;41;8;5176;35847;4;5438;455;41;9;2861;19932;4;3030;504;42
06.03.21;14:55:00;1;610;12052;0;2;4202;22032;4;4436;385;45;3;2433;14839;4;2552;432;33;4;3660;22961;5;3812;232;40;5;0;0;0;0;0;0;0;0;6;5081;44790;4;2640;2550;589;573;34;7;5320;35756;4;5599;454;41;8;5292;35420;4;5561;456;41;9;2927;19695;4;3101;507;42
06.03.21;14:50:00;1;628;11997;0;2;4234;21683;4;4471;393;45;3;2463;14637;4;2588;442;34;4;3760;22657;5;3916;235;41;5;0;0;0;0;0;0;0;0;6;5201;44366;4;2703;2618;593;573;34;7;5407;35313;4;5701;459;42;8;5362;34976;4;5638;457;41;9;2969;19449;4;3143;507;43
06.03.21;14:45:00;1;687;11945;0;2;4357;21328;4;4601;393;45;3;2549;14431;4;2677;452;34;4;3864;22343;5;4025;235;41;5;0;0;0;0;0;0;0;0;6;5364;43931;4;2781;2675;591;573;35;7;5566;34867;4;5860;466;42;8;5520;34532;4;5804;459;41;9;3055;19203;4;3237;516;43
06.03.21;14:40:00;1;723;11887;0;2;4399;20966;4;4642;392;45;3;2617;14219;4;2749;460;34;4;3921;22022;5;4084;234;41;5;0;0;0;0;0;0;0;0;6;5474;43483;4;2834;2732;588;567;35;7;5669;34398;4;5966;466;42;8;5606;34069;4;5901;459;42;9;3104;18947;4;3286;514;43
06.03.21;14:35:00;1;468;11826;0;2;4408;20599;4;4651;395;45;3;2739;14000;4;2881;480;35;4;3945;21695;5;4110;233;41;5;0;0;0;0;0;0;0;0;6;5560;43026;4;2882;2787;584;562;35;7;5688;33926;4;5987;458;42;8;5630;33600;4;5924;456;42;9;3118;18688;4;3303;508;44
06.03.21;14:30:00;1;508;11785;0;2;4422;20239;4;4664;391;45;3;2843;13778;4;2994;497;35;4;3939;21373;5;4103;232;41;5;0;0;0;0;0;0;0;0;6;5627;42571;4;2908;2805;581;558;35;7;5711;33463;4;6012;458;42;8;5667;33142;4;5953;454;42;9;3139;18436;4;3325;508;44
06.03.21;14:25:00;1;2277;11749;0;2;4463;19863;4;4708;389;45;3;2910;13535;4;3063;493;35;4;3997;21038;5;4163;231;41;5;0;0;0;0;0;0;0;0;6;5773;42092;4;2980;2892;584;562;35;7;5779;32976;4;6084;454;43;8;5726;32658;4;6028;456;42;9;3177;18167;4;3366;501;44